Home > Time Zones > World Clock > Weather > France > Lyon > Past weeks

Flag for France Weather past 2 weeks in Lyon, France

Now
52 °F

Mostly cloudy.


Feels Like: 49 °F
Forecast: 42 / 54 °F
Wind: 9 mph from Northwest

Location: Lyon / Bron

Current Time: Mar 2, 2015 at 8:17:57 PM

Latest Report: Mar 2, 2015 at 7:30 PM


Visibility: N/A

Pressure: 30.15 "Hg

Humidity: 54%

Dew point: 36 °F

Location of LyonLocation

Historic Weather in Lyon — Graph

°F

Lyon temperature yesterday

Maximum temperature yesterday: 50 °F (at 2:30 PM)
Minimum temperature yesterday: 37 °F (at 12:00 AM)
Average temperature yesterday: 45 °F

Past Weeks' High & Low Weather Summary

 TemperatureHumidityPressure
High61 °F (Mar 2, 12:00 PM)93% (Feb 15, 8:00 PM)30.63 "Hg (Feb 15, 8:00 PM)
Low28 °F (Feb 23, 12:30 AM)39% (Mar 2, 3:00 PM)29.59 "Hg (Feb 21, 6:30 AM)
Average42 °F74%30.07 "Hg
* Reported Feb 15 7:00 PM — Mar 2 7:00 PM, Lyon, Weather by CustomWeather, © 2015

Note: Actual official high and low records may vary slightly from our data, if they occured in-between our weather recording intervals... More about our weather records

Advertising

Lyon weather history for previous 24 hours

 ConditionsComfort  
Time TempWeatherWind HumidityBarometerVisibility
7:00 PM
Mon, Mar 2
52 °FClear.7 mph58%30.15 "HgN/A
6:30 PM52 °FClear.12 mph58%30.12 "HgN/A
6:00 PM52 °FClear.9 mph67%30.12 "HgN/A
5:30 PM52 °FClear.10 mph67%30.09 "HgN/A
5:00 PM59 °FBroken clouds.14 mph42%30.09 "HgN/A
4:30 PM59 °FClear.14 mph42%30.07 "HgN/A
4:00 PM59 °FClear.13 mph42%30.07 "HgN/A
3:30 PM59 °FClear.15 mph39%30.07 "HgN/A
3:00 PM59 °FClear.16 mph39%30.07 "HgN/A
2:30 PM59 °FClear.14 mph42%30.04 "HgN/A
2:00 PM59 °FClear.12 mph45%30.04 "HgN/A
1:30 PM57 °FClear.17 mph48%30.04 "HgN/A
1:00 PM57 °FClear.13 mph48%30.04 "HgN/A
12:30 PM59 °FClear.15 mph51%30.04 "HgN/A
12:00 PM61 °FPartly sunny.15 mph52%30.01 "HgN/A
11:30 AM57 °FMostly cloudy.3 mph67%30.01 "HgN/A
11:00 AM57 °FClear.3 mph63%30.01 "HgN/A
10:30 AM57 °FClear.5 mph63%30.01 "HgN/A
10:00 AM55 °FClear.9 mph72%30.01 "HgN/A
9:30 AM52 °FLight rain. Partly sunny.7 mph82%30.01 "HgN/A
9:00 AM50 °FMostly cloudy.3 mph88%30.01 "HgN/A
8:30 AM50 °FOvercast.2 mph88%29.98 "HgN/A
8:00 AM50 °FOvercast.1 mph88%29.95 "HgN/A
7:30 AM50 °FLight rain. Broken clouds.15 mph88%29.95 "Hg4 mi
7:00 AM50 °FPartly cloudy.9 mph88%29.92 "HgN/A
6:30 AM50 °FLight rain. Mostly cloudy.12 mph88%29.92 "HgN/A
6:00 AM50 °FMostly cloudy.13 mph88%29.89 "HgN/A
5:30 AM50 °FPassing clouds.14 mph88%29.89 "HgN/A
5:00 AM50 °FOvercast.13 mph88%29.89 "HgN/A
4:30 AM50 °FClear.15 mph88%29.89 "HgN/A
4:00 AM50 °FClear.13 mph82%29.92 "HgN/A
3:30 AM50 °FClear.12 mph82%29.92 "HgN/A
3:00 AM50 °FClear.12 mph82%29.92 "HgN/A
2:30 AM50 °FClear.8 mph82%29.95 "HgN/A
2:00 AM50 °FClear.15 mph88%29.95 "HgN/A
1:30 AM50 °FClear.14 mph82%29.95 "HgN/A
1:00 AM50 °FClear.14 mph82%29.95 "HgN/A
12:30 AM50 °FPartly cloudy.16 mph82%29.95 "HgN/A
12:00 AM50 °FClear.14 mph82%29.95 "HgN/A
11:30 PM
Sun, Mar 1
50 °FClear.12 mph82%29.95 "HgN/A
11:00 PM50 °FClear.16 mph82%29.95 "HgN/A
10:00 PM50 °FClear.13 mph82%29.95 "HgN/A
9:30 PM50 °FClear.13 mph82%29.95 "HgN/A
8:30 PM50 °FMostly cloudy.13 mph82%29.98 "HgN/A
8:00 PM50 °FPartly cloudy.9 mph82%29.98 "HgN/A
Weather by CustomWeather, © 2015

See weather overviewHow to use our weather pages